Location: Acheville
(50.3840°N, 2.8827°E)
Time: 12:56:47
(UTC+00:00)

USA 238 DEB - Pass Details

Date: 24 October 2021
Orbit: 978 x 1234 km, 63.4° (Epoch: 25 November)

Event Time Altitude Azimuth Distance (km) Brightness Sun altitude
Rises 20:04:46 0° 313° (NW) 3,895 7.6 -33.0°
Reaches altitude 10° 20:07:27 10° 318° (NW) 2,973 6.7 -33.4°
Enters shadow 20:13:24 50° 8° (N) 1,438 4.3 -34.3°
